This demonstration page uses our WeatherBlox Daily Observations layout. Learn more.

Left ArrowRight Arrow

34.74481, -87.66753

Hourly Observations for February 7, 2018

Temp ( °F °C ) Dew Point ( °F °C ) Humidity (%) Winds ( mph kmh ) Pressure ( in mb ) Visibility ( mi km ) Precip ( " mm )
12:21 am 00:21 Cloudy with Rain 49 9.4 46 7.8 90 90 N 6 9 30.03 1017 3 4 0.00 0.00
12:29 am 00:29 Cloudy with Light Rain 48 8.9 46 7.8 93 93 N 5 7 30.03 1017 2 3 0.00 0.00
12:53 am 00:53 Cloudy with Nearby Thunderstorms 48 8.9 46 7.8 93 93 N 7 11 30.04 1017 2 3 0.00 0.00
1:12 am 01:12 Cloudy with Nearby Thunderstorms 49 9.4 47 8.3 93 93 NNW 6 9 30.06 1018 2 2 0.00 0.00
1:19 am 01:19 Cloudy with Heavy Rain 49 9.4 47 8.3 93 93 WNW 6 9 30.06 1018 1 2 0.00 0.00
1:31 am 01:31 Cloudy with Heavy Rain 50 10 47 8.3 89 89 NNW 5 7 30.06 1018 2 3 0.00 0.00
1:53 am 01:53 Cloudy with Heavy Rain 50 10 47 8.3 89 89 NNE 5 7 30.04 1017 2 3 0.00 0.00
2:29 am 02:29 Cloudy with Heavy Rain 51 10.6 49 9.4 92 92 Calm 30.03 1017 2 3 0.10 2.54
2:53 am 02:53 Cloudy with Heavy Rain 50 10 48 8.9 93 93 SW 6 9 30.06 1018 1 2 0.19 4.83
3:48 am 03:48 Cloudy with Rain 50 10 46 8 88 88 ESE 6 9 30.03 1017 1 1 0.27 6.86
3:53 am 03:53 Cloudy with Rain 50 10 48 8.9 93 93 ESE 7 11 30.02 1017 1 1 0.30 7.62
4:03 am 04:03 Cloudy with Rain 50 10 49 9.4 96 96 ESE 9 15 30.00 1016 2 3 0.05 1.27
4:17 am 04:17 Cloudy with Light Rain 51 10.6 49 9.4 92 92 ESE 7 11 30.00 1016 3 5 0.12 3.05
4:53 am 04:53 Cloudy with Light Rain 51 10.6 49 9.4 92 92 SSE 10 17 29.98 1015 4 6 0.31 7.87
5:53 am 05:53 Cloudy with Light Rain 51 10.6 49 9.4 92 92 NW 16 26 30.04 1017 3 5 0.25 6.35
6:06 am 06:06 Cloudy with Light Rain 52 11.1 50 10 93 93 NNW 7 11 30.03 1017 6 10 0.05 1.27
6:34 am 06:34 Cloudy with Light Rain 49 9.4 46 7.8 90 90 WNW 15 24 30.06 1018 6 10 0.13 3.30
6:44 am 06:44 Cloudy with Rain 47 8.3 44 6.7 90 90 NW 21 33 30.09 1019 8 13 0.15 3.81
6:53 am 06:53 Cloudy with Light Rain 44 6.7 41 5 89 89 NW 13 20 30.07 1018 10 16 0.17 4.32
7:10 am 07:10 Cloudy 43 6.1 40 4.4 89 89 NW 10 17 30.12 1020 10 16 0.02 0.51
7:20 am 07:20 Cloudy 43 6.1 39 3.9 86 86 NW 10 17 30.12 1020 10 16 0.03 0.76
7:34 am 07:34 Cloudy with Light Rain 43 6.1 39 3.9 86 86 NNW 9 15 30.12 1020 2 3 0.04 1.02
7:53 am 07:53 Cloudy with Mist and Fog 42 5.6 39 3.9 89 89 NNW 7 11 30.12 1020 2 3 0.04 1.02
8:07 am 08:07 Cloudy with Mist and Fog 42 5.6 39 3.9 89 89 NNW 9 15 30.15 1021 3 5 0.00 0.00
8:53 am 08:53 Cloudy with Light Rain 40 4.4 36 2.2 86 86 NNW 12 19 30.19 1022 3 5 0.00 0.03
9:23 am 09:23 Cloudy with Light Rain 39 3.9 35 1.7 86 86 NW 15 24 30.21 1023 3 4 0.00 0.03
9:53 am 09:53 Cloudy with Light Rain 38 3.3 35 1.7 89 89 NNW 10 17 30.23 1024 3 4 0.00 0.03
10:10 am 10:10 Cloudy with Light Rain 39 3.9 35 1.7 86 86 NNW 8 13 30.24 1024 4 6 0.01 0.25
10:53 am 10:53 Cloudy 40 4.4 35 1.7 83 83 NW 7 11 30.27 1025 10 16 0.01 0.25
11:53 am 11:53 Cloudy 40 4.4 35 1.7 83 83 NNW 10 17 30.26 1025 10 16 0.00 0.00
12:21 pm 12:21 Cloudy 39 3.9 34 1.1 82 82 NNW 9 15 30.24 1024 10 16 0.00 0.00
12:53 pm 12:53 Cloudy 38 3.3 33 0.6 83 83 N 12 19 30.26 1025 10 16 0.00 0.00
1:49 pm 13:49 Cloudy 39 4 34 1 81 81 NNW 10 17 30.27 1025 10 16 0.00 0.00
1:53 pm 13:53 Cloudy 38 3.3 33 0.6 83 83 NW 10 17 30.28 1025 10 16 0.00 0.00
2:53 pm 14:53 Cloudy 38 3.3 32 0 79 79 N 7 11 30.30 1026 10 16 0.00 0.00
3:30 pm 15:30 Cloudy 37 2.8 31 -0.6 79 79 N 8 13 30.33 1027 10 16 0.00 0.00
3:53 pm 15:53 Cloudy 37 2.8 31 -0.6 79 79 NNW 12 19 30.32 1027 9 14 0.00 0.00
4:36 pm 16:36 Cloudy 37 2.8 30 -1.1 76 76 N 8 13 30.36 1028 10 16 0.00 0.00
4:53 pm 16:53 Cloudy 37 2.8 30 -1.1 76 76 NNW 9 15 30.35 1028 10 16 0.00 0.00
5:53 pm 17:53 Cloudy 36 2.2 29 -1.7 76 76 N 8 13 30.37 1029 10 16 0.00 0.00
6:44 pm 18:44 Partly Cloudy 36 2.2 28 -2.2 73 73 N 7 11 30.42 1030 10 16 0.00 0.00
6:53 pm 18:53 Mostly Clear 35 1.7 28 -2.2 76 76 N 7 11 30.40 1030 10 16 0.00 0.00
7:11 pm 19:11 Mostly Cloudy 35 1.7 28 -2.2 76 76 N 7 11 30.45 1031 10 16 0.00 0.00
7:40 pm 19:40 Partly Cloudy 35 1.7 28 -2.2 76 76 N 6 9 30.45 1031 10 16 0.00 0.00
7:53 pm 19:53 Mostly Clear 35 1.7 28 -2.2 76 76 N 6 9 30.43 1031 10 16 0.00 0.00
8:09 pm 20:09 Mostly Cloudy 34 1.1 28 -2.2 79 79 NNE 7 11 30.45 1031 10 16 0.00 0.00
8:18 pm 20:18 Partly Cloudy 34 1.1 27 -2.8 76 76 N 8 13 30.45 1031 10 16 0.00 0.00
8:53 pm 20:53 Clear 34 1.1 26 -3.3 73 73 N 7 11 30.44 1031 10 16 0.00 0.00
9:53 pm 21:53 Clear 32 0 25 -3.9 75 75 NNE 7 11 30.46 1032 9 14 0.00 0.00
10:53 pm 22:53 Clear 32 0 25 -3.9 75 75 NNE 10 17 30.46 1032 9 14 0.00 0.00
11:53 pm 23:53 Clear 32 0 25 -3.9 75 75 NNE 12 19 30.48 1032 9 14 0.00 0.00

Powered by AerisWeather